Location: Aldehuela
(41.0006°N, 4.0199°W)
Time: 00:54:11
(UTC+00:00)

Daily predictions for brighter satellites

Satellite Brightness Start Highest point End
(mag) Time Altitude Azimuth Time Altitude Azimuth Time Altitude Azimuth
Cosmos 2082 Rocket 4.3 03:49:32 23° E 03:49:32 23° E 03:52:58 10° NE
Cosmos 1980 Rocket 3.4 04:14:14 37° E 04:14:14 37° E 04:18:15 10° SE
CZ-3 Stage 3 4.4 04:47:16 37° SW 04:52:02 55° S 05:27:58 10° ESE
Nadezhda 4 Rocket 4.0 05:07:13 10° S 05:13:31 82° E 05:19:50 10° N
CZ-4 R/B 4.1 05:13:07 10° NNE 05:17:44 64° ESE 05:22:17 10° S
NOSS 2-1 (D) 4.0 05:17:47 43° NNE 05:18:27 49° NE 05:23:09 10° SE
SL-24 R/B - RUBIN 2 3.8 05:19:22 52° SSW 05:19:22 52° SSW 05:22:59 10° SSE
Cosmos 841 Rocket 3.4 05:15:11 10° SSW 05:20:24 89° ESE 05:25:41 10° NNE
COSMOS 2406 3.3 05:15:14 10° SSW 05:20:52 76° ESE 05:26:33 10° NNE
USA 59 Rocket 0.3 05:20:26 50° NNE 05:21:07 58° NE 05:26:03 10° SE
CZ-3 R/B 4.0 05:14:25 25° WSW 05:22:01 33° SW 05:29:45 10° SSE
NOSS 2-1 (E) 4.3 05:25:12 35° N 05:26:19 45° NE 05:30:56 10° SE
NOSS 3-1 (C) 4.4 05:21:26 21° NNW 05:26:42 65° NE 05:35:37 10° SE
Cosmos 1933 3.0 05:27:10 86° SSW 05:27:10 86° SSW 05:30:54 10° S
Cosmos 1892 Rocket 4.2 05:23:26 10° S 05:27:40 55° E 05:31:58 10° NNE
ATLAS CENTAUR Rocket 4.2 05:27:04 11° SSW 05:30:51 27° SSE 05:40:43 10° E
Cosmos 2082 Rocket 2.3 05:31:29 44° W 05:32:16 47° WNW 05:37:42 10° NNE
SL-16 R/B 3.3 05:28:40 11° N 05:33:55 42° ENE 05:39:16 10° SE
COSMOS 2455 2.8 05:41:19 26° NW 05:44:53 72° WSW 05:50:51 10° SSE
IRS-1D 3.4 05:39:59 10° N 05:44:55 60° WNW 05:49:55 10° SSW
Cosmos 1898 Rocket 3.4 05:42:42 25° NNW 05:45:47 68° WSW 05:51:00 10° S
NOSS 2-1 (C) 3.4 05:44:49 37° NNW 05:46:18 85° ENE 05:51:20 10° SE
SWAS 4.2 05:51:06 28° NNW 05:53:09 85° WSW 05:57:11 10° SSE
Delta 2 Rocket 4.3 05:54:41 19° SSW 05:55:15 21° SSW 05:57:36 10° SE
COSMO-SKYMED 1 2.3 05:51:12 10° S 05:55:18 78° WSW 05:59:10 12° NNW
Cosmos-2242 3.8 05:51:48 10° N 05:55:55 50° E 06:00:00 10° SSE
Cosmos 1980 Rocket 3.1 05:56:02 26° W 05:56:40 26° WSW 06:01:13 10° SSW
Cosmos 2278 4.3 05:51:33 10° NNW 05:57:07 56° ENE 06:02:38 10° SE
SKYMED 2 3.8 05:54:16 10° S 05:58:27 47° W 06:01:14 20° NNW
Cosmos 1627 Rocket 4.4 05:54:22 10° S 06:00:29 82° W 06:06:38 10° N
Tiangong -1.5 05:59:42 36° WSW 06:00:33 47° SSW 06:03:40 10° SE
Cosmos 2369 4.0 05:58:13 22° NW 06:01:32 45° WSW 06:06:52 10° S
Cosmos 2058 Rocket 3.4 05:58:42 10° N 06:03:09 68° E 06:07:30 10° SSE
Cosmos 1484 Rocket 2.5 06:00:01 10° NNE 06:03:25 78° ESE 06:06:47 10° S
Meteor 2-2 Rocket 4.5 06:00:45 10° N 06:06:27 74° E 06:12:15 10° SSE
Okean 1 3.7 06:05:18 10° N 06:08:49 55° E 06:12:17 10° SSE
Meteor 2-20 Rocket 4.5 06:03:56 10° N 06:09:42 75° E 06:15:23 10° SSE
Cosmos 1937 Rocket 3.5 06:06:02 14° NNW 06:10:20 55° WSW 06:15:19 10° S
Cosmos 858 Rocket 4.4 06:05:15 10° NNW 06:10:26 79° WSW 06:15:37 10° SSE
NOAA 12 4.5 06:06:47 10° N 06:11:41 40° WNW 06:16:32 10° SW
ATLAS 2AS CENTAUR R/B 4.5 06:05:55 10° S 06:12:14 36° ESE 06:18:25 10° NE
ARIANE 5 R/B 4.4 06:10:56 10° NNE 06:15:40 34° E 06:20:21 10° SSE
Cosmos 2333 Rocket 2.4 06:17:13 10° NNW 06:23:00 78° ENE 06:28:44 10° SSE
SMAP 3.7 06:22:17 10° NNE 06:26:54 60° E 06:31:29 10° S
Helios 1A Rocket 3.3 06:24:02 10° SSW 06:26:58 29° W 06:29:20 14° NW
Cosmos 2360 Rocket 2.8 06:23:55 10° NNW 06:29:29 59° ENE 06:35:00 10° SE
Cosmos 2026 Rocket 4.2 06:24:17 10° SSW 06:30:02 45° WNW 06:35:51 10° N
DMSP B5D1-3 4.5 06:26:13 10° S 06:31:18 69° WSW 06:36:24 10° NNW
Cosmos 1814 Rocket 4.0 06:26:23 10° SSW 06:31:36 88° WNW 06:36:54 10° NNE
NOSS 3-1 (A) 4.3 06:25:55 10° NNW 06:33:20 78° NE 06:42:27 10° SE
IRIDIUM 103 4.3 06:29:05 10° S 06:34:18 87° W 06:39:33 10° N
CBERS-1 3.9 06:30:33 10° N 06:35:38 70° WNW 06:40:41 10° SSW
BREEZE-M DEB (TANK) 3.5 06:34:37 12° NNW 06:35:51 21° NNE 06:37:49 10° E
IGS 5A 3.5 06:32:28 10° N 06:36:21 51° WNW 06:40:14 10° SSW
Cosmos 1758 Rocket 3.6 06:33:45 10° S 06:38:11 88° E 06:42:36 10° N
Cosmos 1733 1.1 06:37:23 10° SSW 06:39:12 67° W 06:41:02 10° N
Cosmos 1743 2.8 06:36:12 10° S 06:39:22 61° E 06:42:35 10° NNE
SL-4 R/B 3.4 06:37:09 10° NNW 06:39:29 18° NNE 06:41:45 10° ENE
BREEZE-M DEB (TANK) 4.1 06:42:40 12° WNW 06:44:57 28° N 06:50:10 10° ENE
Meteor 2-6 Rocket 4.4 06:40:47 10° N 06:46:47 88° E 06:52:44 10° S
Thor Agena Rocket 3.4 06:43:04 10° NNE 06:48:08 79° WNW 06:53:09 10° SSW
Cosmos 2219 Rocket 3.1 06:42:48 10° NNW 06:48:19 50° ENE 06:53:45 10° SE
Cosmos 2322 Rocket 2.2 06:45:47 10° NNW 06:51:31 83° WSW 06:57:09 10° SSE
IRIDIUM 106 4.4 06:47:31 10° SSW 06:52:38 59° W 06:57:48 10° N
Cosmos 1553 Rocket 4.1 06:49:01 10° NNW 06:55:21 66° W 07:01:40 10° S
SJ-12 3.7 06:56:21 10° N 07:00:10 82° WNW 07:03:58 10° SSW
